Kosmos-2291

operational
NORAD ID: 23267 Int'l Des: 1994-060 Owner: VKS Country: RU
HEOCIRCULARGSO

Über Kosmos-2291

Beschreibung wird geladen...

Live-Position

3D-Globus wird geladen...

Nächste Überflüge

Höhenverlauf

Altitude vs Time

uPlot chart will show altitude changes over time

Zweizeiliger Elementsatz

1 23267U 94060A 26062.05808873 -.00000126 00000-0 00000+0 0 9993
2 23267 14.1858 350.4262 0006660 240.9312 298.6341 1.00279392115137
Epoch: 3. März 2026 • Age: 14 hours

Aktueller Status

Höhe 35800.8 km
Geschwindigkeit 3.07 km/s
Subsatellitenpunkt 2.01°N, 11.92°W
Startdatum 21. Sept. 1994
Alter 31.4 years
Typ other

Technische Details

Klassifizierung Payload
Masse 2100.00 kg
Trockenmasse 1900.00 kg
Gesamtmasse 2100.00 kg
Länge 5.50 m
Durchmesser 2.50 m
Spannweite 9.00 m
Form Cyl + 2 Pan + Plate
Hersteller NPOPMR
Bus-Typ Geizer
Phasenstatus In Orbit
Besitzer/Staat VKS/RU

Große Konstellationen

Loading constellations...